Regional Weather Roundup
Issued by NWS

Home | Current Version | Previous Version | Text Only | Print | Product List | Glossary Off
Versions: 1 2 3 4 5 6 7 8 9 10 11 12 13 14 15 16 17 18 19 20 21 22 23 24 25 26 27 28 29 30 31 32 33 34 35 36 37 38 39 40 41 42 43 44 45 46 47 48 49 50

000
ASUS43 KLOT 051009
RWRIL

ILLINOIS REGIONAL WEATHER ROUNDUP
NATIONAL WEATHER SERVICE CHICAGO/ROMEOVILLE IL
500 AM CDT SAT SEP 05 2015

NOTE: "FAIR" INDICATES FEW OR NO CLOUDS BELOW 12,000 FEET WITH NO
SIGNIFICANT WEATHER AND/OR OBSTRUCTIONS TO VISIBILITY.

* THESE STATIONS ARE NOT UNDER NWS QUALITY CONTROL. THEY ALSO MAY NOT
  REPORT WEATHER SUCH AS PRECIPITATION OR FOG.

ILZ001-002-007-009-015-016-024-051100-
NORTHWEST ILLINOIS

CITY           SKY/WX    TMP DP  RH WIND       PRES   REMARKS
MOLINE         CLOUDY    74  69  85 SE6       30.04R
STERLING*      MOCLDY    72  70  94 CALM      30.03S
SAVANNA*       LGT RAIN  72  70  93 CALM      30.04R
$$

ILZ003-004-008-010-011-017-018-051100-
NORTH CENTRAL ILLINOIS

CITY           SKY/WX    TMP DP  RH WIND       PRES   REMARKS
ROCKFORD       PTCLDY    69  65  86 SE5       30.07R
FREEPORT*      MOCLDY    67  66  98 E5        30.07R FOG
ROCHELLE*      HVY RAIN  70  69  97 CALM      30.08R
PERU*          PTCLDY    71  67  89 CALM      30.07S
$$

ILZ005-006-012>014-019>023-051100-
NORTHEAST ILLINOIS

CITY           SKY/WX    TMP DP  RH WIND       PRES   REMARKS
CHICAGO-OHARE  PTCLDY    70  68  93 SE3       30.07R
CHICAGO-MIDWAY MOCLDY    75  68  78 SE3       30.07R
AURORA         PTCLDY    70  67  90 CALM      30.07R
LANSING*       MOCLDY    69  67  92 S6        30.09R
JOLIET*        MOCLDY    70  68  95 CALM      30.08R
WAUKEGAN       PTCLDY    66  65  96 CALM      30.06S FOG
DUPAGE AIRPORT MOCLDY    70  66  87 CALM      30.07R
KANKAKEE*      PTCLDY    68  65  92 CALM      30.10R
WHEELING       NOT AVBL
MORRIS*        PTCLDY    68  66  92 CALM      30.07R
ROMEOVILLE*    PTCLDY    68  66  92 SE5       30.08R
NORTHERLY ISL    N/A     71  69  93 S3          N/A
$$

LMZ740>746-051100-
SOUTHERN LAKE MICHIGAN

STATION/POSITION SKY/WX   TEMP    WIND        PRES    VSBY  WAVE
                          AIR SEA DIR/SP/G                  HT/PER
                          (F)     (DEG/KT/KT) (MB)    (MI)  (FT/S)
SOUTHERN BUOY              69 71   90/  4/  4 1017.9R         0
WILMETTE HARBOR            71 71  300/  2/  4   N/A           1
HARRISON CRIB              71     140/  2/  2   N/A
BURNHAM HARBOR             71     160/  3       N/A
CALUMET HARBOR             72     170/  2/  3   N/A
BURNS HARBOR               72     170/  6/ 10 1019.0R
MICHIGAN CITY              69     130/ 10/ 12   N/A
MICHIGAN CITY 6N           71 74  190/ 10/ 14   N/A           1
ST. JOSEPH                 71 74  220/ 12/ 14   N/A           1
$$

ILZ025>027-034>036-040-047-049-050-058-095>099-051100-
WEST-CENTRAL ILLINOIS

CITY           SKY/WX    TMP DP  RH WIND       PRES   REMARKS
QUINCY         CLEAR     73  69  87 S6        30.04R
GALESBURG*     MOCLDY    71  68  90 CALM      30.06R
MACOMB*        PTCLDY    71  69  93 CALM      30.07R
JACKSONVILLE*  CLEAR     74  70  88 S5        30.05S
PITTSFIELD*    CLEAR     73  68  83 CALM      30.06R
$$

ILZ028>032-037-038-041>044-048-051>054-059>061-051100-
CENTRAL ILLINOIS

CITY           SKY/WX    TMP DP  RH WIND       PRES   REMARKS
PONTIAC        PTCLDY    69  67  95 SE5       30.10R
BLOOMINGTON    PTCLDY    70  65  84 S6        30.10R
DECATUR        CLEAR     66  62  87 CALM      30.09R
PEORIA         PTCLDY    74  67  78 CALM      30.06R
LACON*         MOCLDY    73  67  83 CALM      30.05R
LINCOLN*       CLEAR     68  63  85 CALM      30.07R
SPRINGFIELD    CLEAR     72  66  81 S5        30.07R
TAYLORVILLE    CLEAR     66  64  94 CALM      30.08R
$$

ILZ033-039-045-046-055>057-062-063-051100-
EAST-CENTRAL ILLINOIS

CITY           SKY/WX    TMP DP  RH WIND       PRES   REMARKS
CHAMPAIGN      CLEAR     67  65  93 E5        30.10R FOG
MATTOON        CLEAR     70  66  87 SE6       30.08R
PARIS*         CLEAR     67  66  97 CALM      30.10S FOG
$$

ILZ079-100>102-051100-
SOUTHWEST ILLINOIS

CITY           SKY/WX    TMP DP  RH WIND       PRES   REMARKS
ALTON          CLEAR     67  67  98 CALM      30.06R FOG
BELLEVILLE     CLEAR     70  70 100 CALM      30.05R FOG
CAHOKIA*       CLEAR     70  66  87 CALM      30.05R
SPARTA*        CLEAR     73  69  89 CALM      30.06S
$$

ILZ064>066-069>071-074>076-080>082-084>086-088>090-092>094-051100-
SOUTH-CENTRAL ILLINOIS

CITY           SKY/WX    TMP DP  RH WIND       PRES   REMARKS
CARBONDALE     FOG       67  66  97 CALM      30.06R VSB 1
CAIRO*         CLEAR     65  65 100 CALM      30.05R FOG
EFFINGHAM*     CLEAR     66  63  90 CALM      30.10R
MARION         CLEAR     70  70 100 CALM      30.07R FOG
MT. VERNON     CLEAR     70  63  78 N3        30.08R
CENTRALIA*       N/A     67  67 100 CALM      30.06R FOG
SALEM*         CLEAR     68  66  93 CALM      30.07R FOG
METROPOLIS*      N/A     67  67 100 CALM      30.06R FOG
$$

ILZ067-068-072-073-078-083-087-091-051100-
SOUTHEAST ILLINOIS

CITY           SKY/WX    TMP DP  RH WIND       PRES   REMARKS
LAWRENCEVILLE  CLEAR     70  67  90 NE5       30.09R FOG
FLORA*         CLEAR     66  64  94 CALM      30.08R
FAIRFIELD*     CLEAR     69  67  96 CALM      30.07R
HARRISBURG*      N/A     66  66 100 CALM      30.07R FOG
ROBINSON*      CLEAR     66  65  95 CALM      30.10R FOG
CARMI*         CLEAR     67  66  98 E3        30.07R FOG
$$

ABBREVIATIONS USED IN REMARKS
   TC - TEMPERATURE IN CELSIUS
  WCI - WIND CHILL INDEX
   HX - HEAT INDEX
  VSB - VISIBILITY
$$




USA.gov is the U.S. government's official web portal to all federal, state and local government web resources and services.